Winston-Salem, NC

8:23 PM EDT on September 23, 2017 (GMT -0400)
Smith Reynolds

Weather History for KINT - April, 2013

Change the Weather History Date:

Sunday, April 21, 2013

  Actual Average Record
Temperature  
Mean Temperature 50 °F -  
Max Temperature 60 °F 68 °F 89 °F (1971)
Min Temperature 43 °F 48 °F 25 °F (1983)
Degree Days  
Heating Degree Days 15    
Moisture  
Dew Point 31 °F    
Average Humidity 48    
Maximum Humidity 66    
Minimum Humidity 36    
Precipitation  
Precipitation 0.00 in - - ()
Sea Level Pressure  
Sea Level Pressure 30.42 in    
Wind  
Wind Speed 7 mph (ENE)    
Max Wind Speed 15 mph    
Max Gust Speed 24 mph    
Visibility 10 miles    
Events      
Averages and records for this station are not official NWS values.
T = Trace of Precipitation, MM = Missing Value Source: NWS Daily Summary

Daily Weather History Graph

Daily Weather History Graph

Search for Another Location

Airport or City:

Trip Planner

Search our weather history database for the weather conditions in past years. The results will help you decide how hot, cold, wet, or windy it might be!

Date:

Astronomy

Apr. 21, 2013 Rise Set
Actual Time 6:39 AM EDT 7:59 PM EDT
Civil Twilight 6:12 AM EDT 8:26 PM EDT
Nautical Twilight 5:40 AM EDT 8:59 PM EDT
Astronomical Twilight 5:07 AM EDT 9:32 PM EDT
Moon 3:50 PM EDT (4/21) 3:52 AM EDT (4/21)
Length of Visible Light 14h 14m
Length of Day
13h 20m
Waxing Gibbous, 79% of the Moon is Illuminated
Apr 21
Waxing Gibbous
Apr 25
Full
May 2
Last Quarter
May 9
New
May 18
First Quarter

Hourly Weather History & Observations

Time (EDT) Temp. Windchill Dew Point Humidity Pressure Visibility Wind Dir Wind Speed Gust Speed Precip Events Conditions
12:54 AM 48.0 °F - 28.0 °F 46% 30.29 in 10.0 mi NNE 4.6 mph - N/A   Clear
1:54 AM 46.9 °F - 28.0 °F 48% 30.30 in 10.0 mi NNE 5.8 mph - N/A   Clear
2:54 AM 46.9 °F - 27.0 °F 46% 30.31 in 10.0 mi NNE 5.8 mph - N/A   Clear
3:54 AM 45.0 °F 41.2 °F 27.0 °F 49% 30.33 in 10.0 mi NE 6.9 mph - N/A   Clear
4:54 AM 45.0 °F 41.2 °F 27.0 °F 49% 30.35 in 10.0 mi NE 6.9 mph - N/A   Clear
5:54 AM 44.1 °F 39.5 °F 28.9 °F 55% 30.37 in 10.0 mi NE 8.1 mph - N/A   Clear
6:54 AM 43.0 °F 38.2 °F 28.9 °F 58% 30.41 in 10.0 mi NE 8.1 mph - N/A   Clear
7:54 AM 43.0 °F 37.2 °F 28.9 °F 58% 30.45 in 10.0 mi NE 10.4 mph - N/A   Clear
8:54 AM 45.0 °F 39.3 °F 28.0 °F 52% 30.46 in 10.0 mi NE 11.5 mph 24.2 mph N/A   Clear
9:54 AM 46.9 °F - 28.9 °F 50% 30.48 in 10.0 mi NE 15.0 mph 20.7 mph N/A   Clear
10:54 AM 51.1 °F - 30.0 °F 44% 30.49 in 10.0 mi East 11.5 mph 20.7 mph N/A   Clear
11:54 AM 53.1 °F - 30.9 °F 43% 30.49 in 10.0 mi ENE 9.2 mph 17.3 mph N/A   Clear
12:54 PM 54.0 °F - 30.9 °F 41% 30.47 in 10.0 mi Variable 6.9 mph 21.9 mph N/A   Clear
1:54 PM 55.0 °F - 32.0 °F 42% 30.46 in 10.0 mi ESE 11.5 mph - N/A   Clear
2:54 PM 57.9 °F - 34.0 °F 41% 30.45 in 10.0 mi East 9.2 mph - N/A   Clear
3:54 PM 57.9 °F - 33.1 °F 39% 30.43 in 10.0 mi East 8.1 mph - N/A   Clear
4:54 PM 57.9 °F - 33.1 °F 39% 30.41 in 10.0 mi SE 8.1 mph - N/A   Clear
5:54 PM 57.9 °F - 30.9 °F 36% 30.40 in 10.0 mi East 6.9 mph 16.1 mph N/A   Clear
6:54 PM 57.9 °F - 33.1 °F 39% 30.40 in 10.0 mi East 8.1 mph - N/A   Clear
7:54 PM 55.9 °F - 33.1 °F 42% 30.42 in 10.0 mi East 5.8 mph - N/A   Mostly Cloudy
8:54 PM 53.1 °F - 35.1 °F 50% 30.44 in 10.0 mi ENE 4.6 mph - N/A   Partly Cloudy
9:54 PM 50.0 °F - 36.0 °F 59% 30.47 in 10.0 mi East 3.5 mph - N/A   Clear
10:54 PM 48.9 °F - 37.0 °F 64% 30.47 in 10.0 mi East 3.5 mph - N/A   Overcast
11:54 PM 48.0 °F - 37.0 °F 66% 30.46 in 10.0 mi ENE 3.5 mph - N/A   Overcast